This is the latest recevied weather packets stored in our database for station/object N9CQL. If no packets are shown the sender has not sent any weather packets the latest 1 day(s).
| Time | Temp. | Humidity | Pressure | Rain* | Wind** | Luminosity | Snow |
|---|---|---|---|---|---|---|---|
| 1778029600 | 12.22° C | 45% | 1007.4 hPa | 0 mm | 0 m/s | 0 W/m² | - |
| 1778029297 | 12.78° C | 42% | 1007.4 hPa | 0 mm | 0 m/s | 0 W/m² | - |
| 1778028994 | 12.78° C | 42% | 1007.3 hPa | 0 mm | 0 m/s | 0 W/m² | - |
| 1778028691 | 12.78° C | 41% | 1007.3 hPa | 0 mm | 0 m/s | 0 W/m² | - |
| 1778028387 | 12.78° C | 42% | 1007.3 hPa | 0 mm | 0 m/s | 0 W/m² | - |
| 1778028084 | 12.78° C | 41% | 1007.2 hPa | 0 mm | 0 m/s | 0 W/m² | - |
| 1778027780 | 12.78° C | 40% | 1007.4 hPa | 0 mm | 0 m/s | 1 W/m² | - |
| 1778027477 | 12.78° C | 41% | 1007.1 hPa | 0 mm | 0 m/s | 3 W/m² | - |
| 1778027173 | 12.78° C | 42% | 1007.2 hPa | 0 mm | 0 m/s | 4 W/m² | - |
| 1778026869 | 12.78° C | 40% | 1007.2 hPa | 0 mm | 0 m/s | 6 W/m² | - |
| 1778026565 | 12.78° C | 40% | 1007.3 hPa | 0 mm | 0 m/s | 8 W/m² | - |
| 1778026262 | 12.78° C | 39% | 1007.3 hPa | 0 mm | 0 m/s | 10 W/m² | - |
| 1778025960 | 12.78° C | 39% | 1007.4 hPa | 0 mm | 0 m/s | 11 W/m² | - |
| 1778025657 | 12.78° C | 39% | 1007 hPa | 0 mm | 0 m/s | 14 W/m² | - |
| 1778025355 | 12.78° C | 42% | 1007.1 hPa | 0 mm | 0 m/s | 16 W/m² | - |
| 1778025052 | 13.33° C | 38% | 1007 hPa | 0 mm | 0 m/s | 17 W/m² | - |
| 1778024749 | 13.33° C | 39% | 1007 hPa | 0 mm | 0 m/s | 18 W/m² | - |
| 1778024445 | 13.33° C | 40% | 1007.2 hPa | 0 mm | 0 m/s | 28 W/m² | - |
| 1778024143 | 13.33° C | 40% | 1007.3 hPa | 0 mm | 0 m/s | 32 W/m² | - |
| 1778023840 | 13.33° C | 39% | 1007.3 hPa | 0 mm | 0 m/s | 48 W/m² | - |
| 1778023538 | 13.33° C | 38% | 1007.2 hPa | 0 mm | 0 m/s | 59 W/m² | - |
| 1778023235 | 13.33° C | 38% | 1007 hPa | 0 mm | 0 m/s | 68 W/m² | - |
| 1778022932 | 13.89° C | 40% | 1007 hPa | 0 mm | 0 m/s | 64 W/m² | - |
| 1778022631 | 13.89° C | 38% | 1007.2 hPa | 0 mm | 0 m/s | 80 W/m² | - |
| 1778022328 | 13.89° C | 41% | 1007.1 hPa | 0 mm | 0 m/s | 79 W/m² | - |
* Rain latest hour (hover to see other rain measurements)
** Current wind speed in m/s (hover to see current wind gust speed)